Flag for U.S.A. Weather past 2 weeks in Butte, Montana, U.S.A.

Now
28 °F

Clear.


Feels Like: 22 °F
Forecast: 28 / 55 °F
Wind: 6 mph from South

Location: Mooney Airport


UV Index: 5 (Moderate)

Visibility: 10 mi


Pressure: 30.04 "Hg

Humidity: 58%

Dew point: 15 °F

Location of ButteLocation

Historic Weather in Butte

°F

Butte temperature yesterday

Maximum temperature yesterday: 50 °F (at 12:53 AM)
Minimum temperature yesterday: 28 °F (at 11:53 PM)
Average temperature yesterday: 40 °F

Past Weeks' High & Low Weather Summary

 TemperatureHumidityPressure
High64 °F (Apr 8, 3:53 PM)93% (Apr 18, 6:53 AM)30.44 "Hg (Apr 18, 6:53 AM)
Low14 °F (Apr 14, 5:53 AM)10% (Apr 14, 4:53 PM)29.63 "Hg (Apr 18, 1:53 AM)
Average39 °F51%29.99 "Hg
* Reported Apr 3 11:53 PM — Apr 18 11:53 PM, Butte, Weather by CustomWeather, © 2014

Note: Actual official high and low records may vary slightly from our data, if they occured in-between our weather recording intervals... More about our weather records

Advertising

Historic Weather Conditions — Data for Previous 24 hours

 ConditionsComfort  
Time TempWeatherWind HumidityBarometerVisibility
11:53 PM
Apr 18
28 °FClear.6 mph58%30.04 "Hg10 mi
10:53 PM32 °FClear.3 mph50%30.02 "Hg10 mi
9:53 PM33 °FClear.7 mph43%30.01 "Hg10 mi
8:53 PM39 °FSunny.10 mph26%29.96 "Hg10 mi
7:53 PM40 °FSunny.12 mph27%29.94 "Hg10 mi
6:53 PM42 °FPassing clouds.16 mph25%29.91 "Hg10 mi
5:53 PM42 °FPassing clouds.23 mph27%29.91 "Hg10 mi
4:53 PM42 °FPassing clouds.25 mph27%29.88 "Hg10 mi
3:53 PM43 °FBroken clouds.23 mph26%29.86 "Hg10 mi
2:53 PM38 °FMostly cloudy.17 mph48%29.87 "Hg10 mi
1:53 PM41 °FBroken clouds.21 mph60%29.80 "Hg10 mi
12:53 PM44 °FLight rain. Broken clouds.20 mph51%29.73 "Hg10 mi
11:53 AM45 °FBroken clouds.12 mph51%29.74 "Hg10 mi
10:53 AM43 °FPassing clouds.12 mph58%29.75 "Hg10 mi
10:03 AM41 °FBroken clouds.3 mph82%29.78 "Hg10 mi
9:53 AM41 °FPartly sunny.No wind82%29.73 "Hg10 mi
8:53 AM40 °FMostly cloudy.No wind86%29.74 "Hg10 mi
7:53 AM39 °FMostly cloudy.5 mph93%29.72 "Hg10 mi
6:53 AM39 °FOvercast.3 mph93%29.70 "Hg10 mi
6:01 AM39 °FLight rain. Mostly cloudy.6 mph89%29.77 "Hg10 mi
4:53 AM40 °FOvercast.No wind86%29.71 "Hg10 mi
3:53 AM40 °FLight rain. Overcast.7 mph89%29.72 "Hg7 mi
2:53 AM42 °FRain. Overcast.18 mph82%29.68 "Hg4 mi
1:53 AM49 °FLight rain. Overcast.3 mph59%29.63 "Hg10 mi
12:53 AM50 °FMostly cloudy.7 mph52%29.64 "Hg10 mi
Weather by CustomWeather, © 2014

See weather overview